Terminal Aerodrome Forecast
Issued by NWS

Home | Current Version | Previous Version | Graphics & Text | Print | Product List | Glossary On
Versions: 1 2 3 4 5 6 7 8 9 10 11 12 13 14 15 16 17 18 19 20 21 22 23 24 25 26 27 28 29 30 31 32 33 34 35
000
FTUS43 KLOT 191900 AAB
TAFDPA
TAF AMD
KDPA 191952Z 1920/2018 22012G18KT P6SM SCT025 BKN200
     FM200100 22013G22KT P6SM BKN100
     FM200800 25009KT P6SM BKN080
     FM201400 30009KT P6SM SCT035=

USA.gov is the U.S. government's official web portal to all federal, state and local government web resources and services.